Tracking 20083 objects as of 8-Dec-2019
HD Live streaming from Space Station
objects crossing your sky now

COSMOS 1275 DEB

Track COSMOS 1275 DEB now!
10-day predictions


NORAD ID: 18902
Int'l Code: 1981-053MG
Perigee: 801.6 km
Apogee: 818.7 km
Inclination: 83.0 °
Period: 100.9 minutes
Semi major axis: 7181 km
RCS: 0.0086 m2 (small)
Launch date: June 4, 1981
Source: Commonwealth of Independent States (former USSR) (CIS)
Launch site: PLESETSK MISSILE AND SPACE COMPLEX (PKMTR)

Note: This is SATELLITE DEBRIS
aabbcc
Your satellite tracking list
Your tracking list is empty




NASA's NSSDC Master Catalog

Two Line Element Set (TLE):
1 18902U 81053MB  19340.35001887 -.00000855  00000-0 -36134-3 0  9996
2 18902  82.9543  89.9786 0011924  74.2520 285.9979 14.26624778366558
Source of the keplerian elements: AFSPC